Regional Weather Roundup
Issued by NWS Green Bay, WI

Home | Current Version | Previous Version | Graphics & Text | Print | Product List | Glossary Off
Versions: 1 2 3 4 5 6 7 8 9 10 11 12 13 14 15 16 17 18 19 20 21 22 23 24 25 26 27 28 29 30 31 32 33 34 35 36 37 38 39 40 41 42 43 44 45 46 47 48 49 50

000
ASUS43 KGRB 240559
RWRGRB

NORTH-CENTRAL AND NORTHEAST WISCONSIN REGIONAL WEATHER ROUNDUP
NATIONAL WEATHER SERVICE GREEN BAY WI
100 AM CDT THU JUL 24 2014

WIZ005-009-010>012-018-019-240700-
NORTH CENTRAL WISCONSIN

CITY           SKY/WX    TMP DP  RH WIND       PRES   REMARKS
IRONWOOD       NOT AVBL
MANITOWISH WTR NOT AVBL
ARBOR VITAE    NOT AVBL
EAGLE RIVER    NOT AVBL
LAND O LAKES   NOT AVBL
RHINELANDER    CLEAR     50  48  93 CALM      30.21S
PHILLIPS       NOT AVBL
ANTIGO         NOT AVBL
TOMAHAWK       NOT AVBL
MERRILL        NOT AVBL
$$

WIZ013-073-240700-
NORTHEAST WISCONSIN

CITY           SKY/WX    TMP DP  RH WIND       PRES   REMARKS
IRON MOUNTAIN  CLEAR     48  45  89 CALM      30.18F
MARINETTE      PTCLDY    52  48  87 CALM      30.18S
$$

WIZ017-030-035>037-045-240700-
CENTRAL WISCONSIN

CITY           SKY/WX    TMP DP  RH WIND       PRES   REMARKS
MEDFORD        NOT AVBL
WAUSAU         PTCLDY    58  53  84 E3        30.18R
MOSINEE        NOT AVBL
MARSHFIELD     CLEAR     61  54  77 NE5       30.18R
WISC RAPIDS    PTCLDY    61  54  77 SE6       30.19R
STEVENS POINT  NOT AVBL
WAUPACA        NOT AVBL
SHAWANO        NOT AVBL
CLINTONVILLE   NOT AVBL
$$

WIZ038-039-048-051-240700-
FOX VALLEY

CITY           SKY/WX    TMP DP  RH WIND       PRES   REMARKS
NWS GREEN BAY  PTCLDY    55  52  89 NW3       30.18S
APPLETON       NOT AVBL
OSHKOSH        PTCLDY    58  50  75 CALM      30.18S
FOND DU LAC    CLEAR     55  48  77 CALM      30.18S
$$

WIZ022-050-052-240700-
EAST CENTRAL WISCONSIN

CITY           SKY/WX    TMP DP  RH WIND       PRES   REMARKS
STURGEON BAY   PTCLDY    54  45  71 CALM      30.19S
MANITOWOC      NOT AVBL
SHEBOYGAN      CLEAR     52  50  93 CALM      30.18S
$$

LMZ563-521-522-541>543-240700-
LAKESHORE

STATION/POSITION TIME  TEMP    WIND        PRES    VSBY  WAVE
                       AIR SEA DIR/SP/G                  HT/PER
                 (UTC) (F)     (DEG/KT/KT) (MB)    (MI)  (FT/S)
SHEBOYGAN LKSHOR 0500   62     320/  5/  6 1022.0S
KEWAUNEE LKSHORE 0500   54     300/  2/  3 1022.6R
NORTHPORT PIER   0500   62      30/  4/  5 1021.7S
N MID LAKE BUOY  0500   55 54  360/  4/  4 1021.3R         1
CHAMBERS ISLAND  0500   65      40/  7/ 10 1021.7S
MENOMINEE LKSHOR 0500   62     320/  3/  4 1022.6R
$$



USA.gov is the U.S. government's official web portal to all federal, state and local government web resources and services.